Location: Conflans
(49.0016°N, 2.0969°E)
Time: 20:32:54
(UTC+00:00)

Daily predictions for brighter satellites

Satellite Brightness Start Highest point End
(mag) Time Altitude Azimuth Time Altitude Azimuth Time Altitude Azimuth
Cosmos 1607 4.4 17:22:02 10° NNW 17:28:07 45° NE 17:34:04 10° ESE
SMAP 3.7 17:25:53 10° S 17:30:30 62° W 17:35:08 10° NNW
ATLAS 3B R/B 3.0 17:25:47 10° S 17:31:53 44° ESE 17:38:16 10° NE
Cosmos 2297 Rocket 2.6 17:32:09 10° NNW 17:37:48 70° WSW 17:43:24 10° SSE
SKYMED 2 4.0 17:33:41 10° NNE 17:37:48 39° E 17:41:53 10° SSE
Aureole 2 3.9 17:35:27 10° NNW 17:38:24 76° ENE 17:41:26 10° SSE
Meteor 1-22 Rocket 4.5 17:32:42 10° S 17:38:41 90° WNW 17:44:50 10° NNE
Cosmos 1980 Rocket 3.3 17:35:15 10° SSE 17:39:31 22° E 17:43:49 10° NE
Okean 2 Rocket 3.3 17:35:25 10° SSW 17:39:50 78° W 17:44:20 10° N
Okean O Rocket 1.6 17:37:15 10° SSE 17:41:30 58° ENE 17:45:47 10° N
Cosmos 2263 Rocket 3.2 17:36:50 10° NNW 17:41:34 27° NE 17:46:14 10° ESE
BREEZE-M DEB (TANK) 3.8 17:32:37 10° W 17:42:50 85° N 17:46:00 11° E
Landsat 5 3.9 17:40:38 10° NNE 17:44:44 43° E 17:48:57 10° S
Spot 2 4.5 17:41:20 10° SE 17:45:06 38° ENE 17:49:00 10° N
Okean-O 3.9 17:45:16 10° ESE 17:48:34 21° ENE 17:51:53 10° NNE
Genesis I 3.4 17:48:39 10° NW 17:52:44 59° NE 17:56:46 10° SE
Cosmos 1656 3.7 17:47:15 10° SSW 17:52:47 86° WNW 17:58:18 10° NNE
YAOGAN 1 3.2 17:49:03 10° SE 17:52:58 35° ENE 17:56:54 10° N
Cosmos 1727 Rocket 4.0 17:47:11 10° N 17:53:27 71° E 17:59:37 10° SSE
Cosmos 468 4.5 17:49:00 10° NNW 17:54:21 76° ENE 17:59:37 10° SSE
Cosmos 2084 Rocket 3.1 17:51:24 10° SSW 17:55:16 69° SE 17:59:10 10° NE
Cosmos 2298 Rocket 4.3 17:50:37 10° S 17:55:40 47° ESE 18:00:45 10° NNE
ARGOS 3.2 17:50:23 10° SSE 17:55:41 63° ENE 18:01:03 10° N
Cosmos 1048 Rocket 4.0 17:50:20 10° NNW 17:55:45 82° ENE 18:01:05 10° SSE
CENTAUR R/B 4.0 17:50:38 10° W 17:56:31 35° NNW 18:03:27 10° NE
CZ-4C R/B 3.3 17:53:16 10° NNE 17:56:37 42° E 17:59:51 10° S
Cosmos 1455 Rocket 4.1 17:54:16 10° SE 17:57:50 24° E 18:01:24 10° NE
MOS 1-B Rocket 4.4 17:51:02 10° NNE 17:58:10 54° E 18:04:13 10° S
Cosmos 1697 Rocket 2.8 17:52:44 10° S 17:58:15 56° ESE 18:03:47 10° NE
Gbstr 26 Del rocket 4.4 17:52:01 10° WNW 17:59:00 76° N 18:06:06 14° E
Cosmos 389 Rocket 2.8 17:56:24 10° SSE 17:59:34 38° E 18:02:46 10° NNE
Cosmos 1908 3.8 17:56:29 10° SSE 18:00:01 34° E 18:03:32 10° NNE
HJ-1C 4.2 17:59:42 10° SE 18:02:31 28° ENE 18:05:21 10° N
H-2A R/B 3.1 17:59:48 10° NE 18:03:03 22° E 18:06:18 10° SSE
Cosmos 2227 Rocket 2.8 17:58:27 10° NW 18:04:02 61° WSW 18:09:36 10° S
Cosmos 2366 rocket 4.2 17:58:23 10° SSW 18:04:32 79° W 18:10:48 10° N
CZ-4 R/B 1.6 18:05:33 10° SE 18:09:20 47° ENE 18:13:13 10° N
CSL-04 Rocket 4.5 18:05:50 10° ESE 18:10:37 32° ENE 18:15:28 10° N
Cosmos 1470 3.9 18:07:30 10° SSW 18:11:21 48° WNW 18:15:14 10° N
Cosmos 1758 3.4 18:08:05 10° SSW 18:12:05 82° W 18:16:05 10° N
CZ-2C R/B 2.7 18:08:13 10° NNE 18:13:52 72° ESE 18:19:25 10° S
Cosmos 405 4.3 18:11:29 10° SSW 18:14:46 42° WNW 18:18:04 10° N
Cosmos 1844 Rocket 4.4 18:14:01 10° N 18:17:23 16° NE 18:19:23 13° ENE
Cosmos 1703 3.3 18:13:58 10° N 18:17:52 53° ENE 18:21:42 10° SSE
Meteor 1-16 Rocket 4.4 18:12:35 10° S 18:18:20 53° E 18:24:00 10° NNE
Cosmos 1125 Rocket 3.5 18:13:55 10° S 18:19:06 61° ESE 18:24:17 10° NNE
Okean 1 Rocket 3.3 18:17:45 10° SSW 18:22:04 70° W 18:26:26 10° N
Cosmos 1726 4.4 18:19:53 10° SW 18:22:59 26° WNW 18:26:07 10° NNW
Cosmos 1953 2.3 18:19:42 10° S 18:23:39 56° E 18:27:39 10° NNE
SL-08 R/B 4.5 18:19:35 10° S 18:25:47 87° E 18:32:07 10° N
COSMO-SKYMED 1 2.9 18:21:39 10° N 18:26:00 69° WNW 18:30:18 10° SSW
Cosmos 2082 3.9 18:22:55 10° NNW 18:28:34 75° WSW 18:34:09 10° SSE
Meteor 1-21 Rocket 4.3 18:23:12 10° N 18:29:03 85° ENE 18:34:57 10° SSE
Cosmos 1328 4.2 18:25:19 10° N 18:29:08 40° ENE 18:31:20 21° SE
SL-08 RB Rocket 3.6 18:25:18 10° SSE 18:29:49 87° ENE 18:34:25 10° NNW
Lacrosse 4 Rocket 3.3 18:28:30 10° N 18:31:05 15° NE 18:31:40 15° NE
X-37B 2.2 18:28:50 10° SSW 18:31:19 21° SSE 18:31:32 21° SSE
Cosmos 494 Rocket 4.5 18:27:32 10° NNW 18:32:43 63° WSW 18:37:50 10° S
Iridium 4 Rocket 3.1 18:30:23 10° N 18:34:38 56° E 18:39:09 10° SSE
Cosmos 1000 Rocket 4.4 18:29:36 10° N 18:35:48 88° E 18:41:59 10° S
DMSP B5D2-2 4.2 18:31:00 10° NNE 18:36:09 51° E 18:41:14 10° S
USA 186 3.9 18:41:43 15° NNE 18:41:43 15° NNE 18:42:30 10° NNE
Cosmos 1892 Rocket 3.6 18:36:11 10° N 18:40:41 85° W 18:45:08 10° S
DMSP B5D1-3 4.5 18:35:58 10° NNE 18:41:04 59° ESE 18:46:07 10° S
USA 215 4.0 18:39:09 17° ENE 18:43:57 45° N 18:50:07 10° WNW
Cosmos 489 Rocket 4.4 18:38:26 10° NNW 18:44:40 70° ENE 18:49:47 16° SSE
H-2A R/B 3.4 18:45:55 10° S 18:50:13 52° W 18:54:26 10° NNW
Cosmos 405 Rocket 2.7 18:46:47 10° NNW 18:50:42 84° W 18:54:26 11° S
Cosmos 1821 Rocket 4.3 18:46:26 10° SSW 18:52:49 74° W 18:59:14 10° N
Cosmos 2150 Rocket 4.5 18:50:27 10° SW 18:55:51 65° WNW 19:01:14 10° NNE
H-2A R/B 4.4 18:59:04 10° SSW 19:03:26 25° W 19:07:55 10° NW
ATLAS 5 CENTAUR R/B 2.0 19:00:46 10° SSW 19:03:32 38° SSE 19:03:32 38° SSE
Cosmos 2227 4.1 18:59:11 10° NNW 19:04:58 73° ENE 19:07:21 37° SE
Cosmos 2369 3.9 19:00:47 10° SW 19:06:25 70° WNW 19:12:07 10° NNE
Cosmos 1626 Rocket 3.3 19:06:31 10° N 19:10:52 70° E 19:11:04 69° ESE
In-Cosmos 22 Rocket 4.3 19:09:29 10° N 19:14:40 48° ENE 19:14:40 48° ENE
SeaSat 1 4.3 19:17:30 17° NNE 19:17:30 17° NNE 19:20:12 10° N
Cosmos 1934 Rocket 3.9 19:14:04 10° S 19:20:13 82° W 19:26:20 10° N
Cosmos 839 Rocket 4.3 19:14:14 10° NW 19:22:23 67° NE 19:24:24 47° ESE
ATLAS 3B R/B 3.3 19:16:03 10° WSW 19:22:30 53° NW 19:29:13 10° NE
Cosmos 724 4.3 19:16:53 10° NW 19:22:54 83° SW 19:24:47 46° SSE
Cosmos 1980 Rocket 2.5 19:17:21 10° SW 19:22:59 68° WNW 19:28:42 10° NNE
OBJECT-B 3.2 19:26:22 17° NNW 19:26:22 17° NNW 19:27:14 10° NNW
Okean-O 3.3 19:21:29 17° S 19:24:43 52° W 19:29:04 10° NNW
SJ-6B 4.0 19:27:09 34° N 19:27:09 34° N 19:29:25 10° N
Cosmos 2123 Rocket 4.4 19:19:24 10° NNW 19:25:41 65° W 19:31:55 10° S
Cosmos 2263 Rocket 2.4 19:20:25 10° NNW 19:25:58 66° WSW 19:28:27 33° S
CSL-04 Debris 4.5 19:24:26 16° S 19:28:43 64° WSW 19:34:07 10° NNW
Meteor 2-10 Rocket 4.4 19:35:10 39° NNE 19:35:10 39° NNE 19:38:38 10° NNE
Cosmos 1455 Rocket 4.5 19:31:21 10° SW 19:35:27 38° WNW 19:39:37 10° N
Resurs 01 Rocket 3.7 19:40:22 17° NNE 19:40:22 17° NNE 19:41:35 10° N
H-2A R/B 3.3 19:35:20 10° N 19:39:10 39° WNW 19:42:59 10° SW
Cosmos 1697 Rocket 4.4 19:37:34 10° WSW 19:42:33 31° NW 19:47:34 10° NNE
CZ-4 R/B 4.1 19:41:54 10° SW 19:44:36 18° W 19:47:21 10° NW
Orbus 7S? 4.0 19:36:40 10° WNW 19:45:09 75° NNE 19:45:09 75° NNE
CENTAUR R/B 4.4 19:43:29 10° NW 19:49:27 27° N 19:53:07 20° NE
Cosmos 2278 4.3 19:45:04 10° SW 19:50:37 56° WNW 19:56:16 10° NNE
Cosmos 2251 Rocket 4.2 19:53:55 10° NNW 19:57:44 47° N 19:57:44 47° N
Cosmos 2278 Rocket 4.2 19:58:26 10° N 20:00:57 16° NNE 20:00:57 16° NNE
Cosmos 1844 Rocket 3.3 19:56:58 10° NNW 20:01:04 45° N 20:01:04 45° N
IRS-1A Rocket 4.4 20:04:49 71° N 20:04:49 71° N 20:10:02 10° NNW
Lacrosse 4 Rocket 3.5 20:06:12 10° NNW 20:07:58 24° NNW 20:07:58 24° NNW
Ariane Rocket 4.2 20:18:14 37° NNW 20:18:14 37° NNW 20:21:18 10° NNW
Cosmos 2344 4.2 20:13:44 10° NW 20:22:47 82° SW 20:25:37 58° SSE
USA 215 3.7 20:26:30 52° N 20:26:30 52° N 20:32:38 10° WNW
ATLAS 3B R/B 4.4 21:09:13 10° WNW 21:14:46 26° NNW 21:16:27 24° N
CENTAUR R/B 4.2 21:35:04 10° NW 21:40:16 36° N 21:40:16 36° N
